Weather History for Conway, SC

Change the Weather History Date:

Friday, October 21, 2011

  Actual Average Record
Temperature  
Mean Temperature 52 °F -  
Max Temperature 66 °F 74 °F 77 °F (2010)
Min Temperature 37 °F 48 °F 37 °F (2011)
Degree Days  
Heating Degree Days 14    
Growing Degree Days 2 (Base 50)    
Moisture  
Dew Point 43 °F    
Average Humidity 78    
Maximum Humidity 100    
Minimum Humidity 43    
Precipitation  
Precipitation 0.00 in - - ()
Sea Level Pressure  
Sea Level Pressure 30.06 in    
Wind  
Wind Speed 1 mph (West)    
Max Wind Speed 7 mph    
Max Gust Speed -    
Visibility 9 miles    
Events      
Averages and records for this station are not official NWS values.
T = Trace of Precipitation, MM = Missing Value Source: NWS Daily Summary

Daily Weather History Graph

Daily Weather History Graph

Search for Another Location

Airport:

Trip Planner

Search our weather history database for the weather conditions in past years. The results will help you decide how hot, cold, wet, or windy it might be!

Date:

Astronomy

Oct. 21, 2011 Rise Set
Actual Time 7:26 AM EDT 6:35 PM EDT
Civil Twilight 7:00 AM EDT 7:01 PM EDT
Nautical Twilight 6:31 AM EDT 7:30 PM EDT
Astronomical Twilight 6:02 AM EDT 7:59 PM EDT
Moon 1:31 AM EDT 3:04 PM EDT
Length of Visible Light 12h 00m
Length of Day
11h 09m
Waning Crescent, 34% of the Moon is Illuminated
Oct 21
Waning Crescent
Oct 26
New
Nov 2
First Quarter
Nov 10
Full
Nov 18
Last Quarter

Hourly Weather History & Observations

Time (EDT) Temp. Windchill Dew Point Humidity Pressure Visibility Wind Dir Wind Speed Gust Speed Precip Events Conditions
12:15 AM 42.8 °F - 42.8 °F 100% 30.03 in 10.0 mi Calm Calm - N/A   Clear
12:35 AM 42.8 °F - 42.8 °F 100% 30.04 in 10.0 mi Calm Calm - N/A   Clear
12:55 AM 42.8 °F - 42.8 °F 100% 30.04 in 10.0 mi Calm Calm - N/A   Clear
1:15 AM 42.8 °F - 42.8 °F 100% 30.04 in 10.0 mi Calm Calm - N/A   Clear
1:35 AM 41.0 °F - 41.0 °F 100% 30.04 in 10.0 mi Calm Calm - N/A   Clear
1:55 AM 42.8 °F - 42.8 °F 100% 30.04 in 10.0 mi Calm Calm - N/A   Clear
2:15 AM 42.8 °F - 42.8 °F 100% 30.04 in 10.0 mi Calm Calm - N/A   Clear
2:35 AM 41.0 °F - 41.0 °F 100% 30.04 in 10.0 mi Calm Calm - N/A   Clear
2:55 AM 42.8 °F - 42.8 °F 100% 30.04 in 10.0 mi Calm Calm - N/A   Clear
3:15 AM 42.8 °F - 42.8 °F 100% 30.04 in 10.0 mi Calm Calm - N/A   Clear
3:35 AM 42.8 °F - 42.8 °F 100% 30.04 in 10.0 mi Calm Calm - N/A   Clear
3:55 AM 42.8 °F - 42.8 °F 100% 30.04 in 10.0 mi Calm Calm - N/A   Clear
4:15 AM 41.0 °F - 41.0 °F 100% 30.03 in 10.0 mi Calm Calm - N/A   Clear
4:35 AM 39.2 °F - 39.2 °F 100% 30.04 in 10.0 mi Calm Calm - N/A   Clear
4:55 AM 41.0 °F - 41.0 °F 100% 30.04 in 7.0 mi Calm Calm - N/A   Clear
5:15 AM 41.0 °F - 41.0 °F 100% 30.04 in 7.0 mi Calm Calm - N/A   Clear
5:35 AM 37.4 °F - 37.4 °F 100% 30.05 in 7.0 mi Calm Calm - N/A   Clear
5:55 AM 37.4 °F - 37.4 °F 100% 30.06 in 10.0 mi Calm Calm - N/A   Clear
6:15 AM 39.2 °F - 39.2 °F 100% 30.07 in 10.0 mi Calm Calm - N/A   Clear
6:55 AM 37.4 °F - 37.4 °F 100% 30.07 in 7.0 mi Calm Calm - N/A   Clear
7:15 AM 37.4 °F - 37.4 °F 100% 30.08 in 10.0 mi Calm Calm - N/A   Clear
7:35 AM 37.4 °F - 37.4 °F 100% 30.08 in 7.0 mi Calm Calm - N/A   Clear
8:15 AM 42.8 °F 41.1 °F 42.8 °F 100% 30.09 in 10.0 mi SSW 3.5 mph - N/A   Clear
8:35 AM 44.6 °F 43.1 °F 44.6 °F 100% 30.10 in 10.0 mi SW 3.5 mph - N/A   Clear
8:55 AM 46.4 °F 45.2 °F 44.6 °F 93% 30.10 in 10.0 mi West 3.5 mph - N/A   Clear
9:15 AM 46.4 °F 45.2 °F 44.6 °F 93% 30.11 in 10.0 mi WSW 3.5 mph - N/A   Clear
9:35 AM 50.0 °F - 44.6 °F 82% 30.11 in 10.0 mi West 5.8 mph - N/A   Clear
9:55 AM 51.8 °F - 44.6 °F 76% 30.11 in 10.0 mi West 4.6 mph - N/A   Clear
10:15 AM 53.6 °F - 44.6 °F 72% 30.11 in 10.0 mi SW 4.6 mph - N/A   Clear
10:35 AM 53.6 °F - 44.6 °F 72% 30.11 in 10.0 mi SW 3.5 mph - N/A   Clear
11:15 AM 55.4 °F - 44.6 °F 67% 30.10 in 10.0 mi Calm Calm - N/A   Clear
11:35 AM 59.0 °F - 44.6 °F 59% 30.10 in 10.0 mi West 4.6 mph - N/A   Clear
11:55 AM 59.0 °F - 42.8 °F 55% 30.09 in 10.0 mi West 6.9 mph - N/A   Clear
12:15 PM 60.8 °F - 44.6 °F 55% 30.09 in 10.0 mi SW 5.8 mph - N/A   Clear
12:35 PM 62.6 °F - 44.6 °F 52% 30.08 in 10.0 mi West 4.6 mph - N/A   Clear
12:55 PM 62.6 °F - 44.6 °F 52% 30.07 in 10.0 mi SW 3.5 mph - N/A   Clear
1:15 PM 62.6 °F - 44.6 °F 52% 30.06 in 10.0 mi West 4.6 mph - N/A   Clear
1:35 PM 62.6 °F - 44.6 °F 52% 30.05 in 7.0 mi NNE 4.6 mph - N/A   Clear
1:55 PM 64.4 °F - 44.6 °F 49% 30.04 in 7.0 mi WSW 6.9 mph - N/A   Clear
2:15 PM 64.4 °F - 42.8 °F 45% 30.04 in 7.0 mi West 4.6 mph - N/A   Clear
2:35 PM 64.4 °F - 42.8 °F 45% 30.03 in 7.0 mi Calm Calm - N/A   Clear
2:55 PM 64.4 °F - 42.8 °F 45% 30.03 in 7.0 mi NW 3.5 mph - N/A   Clear
3:15 PM 66.2 °F - 44.6 °F 46% 30.03 in 7.0 mi NNW 3.5 mph - N/A   Clear
3:35 PM 66.2 °F - 44.6 °F 46% 30.02 in 7.0 mi WNW 5.8 mph - N/A   Clear
3:55 PM 66.2 °F - 42.8 °F 43% 30.02 in 7.0 mi NW 5.8 mph - N/A   Clear
4:15 PM 66.2 °F - 42.8 °F 43% 30.02 in 5.0 mi SW 5.8 mph - N/A   Haze
4:35 PM 66.2 °F - 42.8 °F 43% 30.02 in 7.0 mi Calm Calm - N/A   Clear
4:55 PM 64.4 °F - 42.8 °F 45% 30.03 in 5.0 mi WNW 3.5 mph - N/A   Haze
5:15 PM 64.4 °F - 42.8 °F 45% 30.02 in 7.0 mi Calm Calm - N/A   Clear
5:35 PM 64.4 °F - 42.8 °F 45% 30.03 in 10.0 mi Calm Calm - N/A   Clear
5:55 PM 62.6 °F - 46.4 °F 55% 30.04 in 7.0 mi Calm Calm - N/A   Clear
6:15 PM 59.0 °F - 50.0 °F 72% 30.04 in 7.0 mi Calm Calm - N/A   Clear
6:35 PM 55.4 °F - 51.8 °F 88% 30.05 in 10.0 mi Calm Calm - N/A   Clear
6:55 PM 53.6 °F - 50.0 °F 88% 30.05 in 10.0 mi Calm Calm - N/A   Clear
7:15 PM 51.8 °F - 50.0 °F 94% 30.06 in 10.0 mi Calm Calm - N/A   Clear
7:35 PM 51.8 °F - 51.8 °F 100% 30.07 in 10.0 mi Calm Calm - N/A   Clear
7:55 PM 50.0 °F - 50.0 °F 100% 30.07 in 10.0 mi Calm Calm - N/A   Clear
8:15 PM 50.0 °F - 50.0 °F 100% 30.08 in 10.0 mi Calm Calm - N/A   Clear
8:35 PM 48.2 °F - 48.2 °F 100% 30.08 in 10.0 mi Calm Calm - N/A   Clear
8:55 PM 48.2 °F - 48.2 °F 100% 30.09 in 10.0 mi Calm Calm - N/A   Clear
9:15 PM 46.4 °F - 46.4 °F 100% 30.09 in 10.0 mi Calm Calm - N/A   Clear
9:35 PM 46.4 °F - 46.4 °F 100% 30.09 in 10.0 mi Calm Calm - N/A   Clear
9:55 PM 46.4 °F - 46.4 °F 100% 30.09 in 10.0 mi Calm Calm - N/A   Clear
10:15 PM 46.4 °F - 46.4 °F 100% 30.09 in 10.0 mi Calm Calm - N/A   Clear
10:55 PM 44.6 °F - 44.6 °F 100% 30.10 in 10.0 mi Calm Calm - N/A   Clear
11:15 PM 44.6 °F - 44.6 °F 100% 30.09 in 10.0 mi Calm Calm - N/A   Clear
11:35 PM 42.8 °F - 42.8 °F 100% 30.09 in 10.0 mi Calm Calm - N/A   Clear
11:55 PM 42.8 °F - 42.8 °F 100% 30.09 in 10.0 mi Calm Calm - N/A   Clear